Regional Weather Roundup
Issued by NWS

Home | Current Version | Previous Version | Graphics & Text | Print | Product List | Glossary Off
Versions: 1 2 3 4 5 6 7 8 9 10 11 12 13 14 15 16 17 18 19 20 21 22 23 24 25 26 27 28 29 30 31 32 33 34 35 36 37 38 39 40 41 42 43 44 45 46 47 48 49 50

000
ASUS43 KTOP 032259
RWRKS

WEATHER ROUNDUP FOR KANSAS
NATIONAL WEATHER SERVICE GOODLAND KS
600 PM CDT WED JUN 03 2015

NOTE:  "FAIR" INDICATES FEW OR NO CLOUDS BELOW 12,000 FEET WITH NO
SIGNIFICANT WEATHER AND/OR OBSTRUCTIONS TO VISIBILITY.

KSZ001>006-013>018-027>032-041>047-040000-
NORTHWEST KANSAS

CITY           SKY/WX    TMP DP  RH WIND       PRES   REMARKS
GOODLAND       PTSUNNY   77  61  57 E15       29.92F
HAYS           CLOUDY    81  66  61 NE14      29.83F
HILL CITY      MOSUNNY   81  64  56 E9        29.86F
RUSSELL        MOSUNNY   82  69  64 NE17      29.82F
$$

KSZ061>065-074>080-084>089-040000-
SOUTHWEST KANSAS

CITY           SKY/WX    TMP DP  RH WIND       PRES   REMARKS
DODGE CITY     MOSUNNY   88  63  43 S16G25    29.79F
ELKHART          N/A     88  62  41 S1          N/A
GARDEN CITY    SUNNY     89  58  34 VRB3      29.79S
GREAT BEND     CLOUDY    86  68  54 SE14      29.79S
LIBERAL        SUNNY     91  63  38 S8G18     29.81S
$$

KSZ066>073-081>083-090>101-040000-
SOUTHEAST KANSAS

CITY           SKY/WX    TMP DP  RH WIND       PRES   REMARKS
CHANUTE        PTSUNNY   83  70  64 SE10      29.89S
COFFEYVILLE    MOSUNNY   85  70  60 S12       29.88R
HUTCHINSON     PTSUNNY   90  66  45 S18G24    29.81F
MEDICINE LODGE   N/A     91  64  40 S17G30    29.78R
NEWTON         PTSUNNY   86  66  51 S15G21    29.87R
PARSONS        MOSUNNY   84  71  65 S8        29.90S
WICHITA INTL   MOSUNNY   89  66  46 S16       29.82R
WICHITA JABRA  PTSUNNY   86  68  54 S16       29.83R
WINFIELD       MOSUNNY   86  68  54 S18G29    29.84S
$$

KSZ007>012-019>026-033>040-048>060-102>105-040000-
NORTHEAST KANSAS

CITY           SKY/WX    TMP DP  RH WIND       PRES   REMARKS
EMPORIA        PTSUNNY   82  69  64 SE13      29.87R
LAWRENCE       CLOUDY    77  69  76 E9        29.87R
MANHATTAN      MOSUNNY   84  72  67 S10       29.85F
OLATHE IND     CLOUDY    76  67  73 CALM      29.88R
OLATHE EXE     CLOUDY    76  67  73 N14       29.88R
SALINA         PTSUNNY   86  69  56 E8        29.83S
TOPEKA BILLARD PTSUNNY   80  69  69 S13G18    29.86R
TOPEKA FORBES  PTSUNNY   80  69  69 S16       29.86R
$$



USA.gov is the U.S. government's official web portal to all federal, state and local government web resources and services.